TimeEST,TemperatureF,Dew PointF,Humidity,Sea Level PressureIn,VisibilityMPH,Wind Direction,Wind SpeedMPH,Gust SpeedMPH,PrecipitationIn,Events,Conditions,WindDirDegrees,DateUTC
12:53 AM,19.9,9.0,62,30.39,10.0,NNW,10.4,-,N/A,,Clear,330,2013-01-18 05:53:00
1:53 AM,19.0,10.9,71,30.43,10.0,WNW,4.6,-,N/A,,Clear,290,2013-01-18 06:53:00
2:53 AM,19.0,10.9,71,30.45,10.0,WNW,3.5,-,N/A,,Mostly Cloudy,290,2013-01-18 07:53:00
3:53 AM,19.0,12.0,74,30.45,10.0,WSW,3.5,-,N/A,,Mostly Cloudy,240,2013-01-18 08:53:00
4:53 AM,19.0,12.9,77,30.46,10.0,WSW,4.6,-,N/A,,Clear,250,2013-01-18 09:53:00
5:53 AM,16.0,12.0,84,30.47,10.0,SSW,3.5,-,N/A,,Clear,210,2013-01-18 10:53:00
6:53 AM,19.0,12.9,77,30.48,10.0,WSW,6.9,-,N/A,,Clear,240,2013-01-18 11:53:00
7:53 AM,18.0,12.9,81,30.49,10.0,SW,5.8,-,N/A,,Clear,230,2013-01-18 12:53:00
8:53 AM,21.0,15.1,78,30.51,10.0,WSW,5.8,-,N/A,,Clear,240,2013-01-18 13:53:00
9:53 AM,25.0,15.1,66,30.52,10.0,WSW,8.1,-,N/A,,Clear,240,2013-01-18 14:53:00
10:53 AM,27.0,15.1,61,30.52,10.0,SW,11.5,-,N/A,,Clear,220,2013-01-18 15:53:00
11:53 AM,30.0,15.1,54,30.48,10.0,SSW,11.5,-,N/A,,Clear,200,2013-01-18 16:53:00
12:53 PM,30.9,16.0,54,30.43,10.0,SSW,16.1,-,N/A,,Mostly Cloudy,200,2013-01-18 17:53:00
1:53 PM,33.1,17.1,52,30.40,10.0,SW,16.1,24.2,N/A,,Clear,220,2013-01-18 18:53:00
2:53 PM,34.0,18.0,52,30.37,10.0,SSW,16.1,27.6,N/A,,Clear,200,2013-01-18 19:53:00
3:53 PM,33.1,18.0,54,30.35,10.0,SSW,19.6,27.6,N/A,,Clear,200,2013-01-18 20:53:00
4:53 PM,32.0,19.9,61,30.32,10.0,South,25.3,33.4,N/A,,Clear,190,2013-01-18 21:53:00
5:53 PM,30.9,19.0,61,30.31,10.0,SSW,25.3,34.5,N/A,,Clear,200,2013-01-18 22:53:00
6:53 PM,30.9,19.9,64,30.30,10.0,South,20.7,31.1,N/A,,Clear,190,2013-01-18 23:53:00
7:53 PM,30.9,19.9,64,30.28,10.0,South,21.9,29.9,N/A,,Clear,190,2013-01-19 00:53:00
8:53 PM,30.9,21.0,67,30.25,10.0,South,24.2,33.4,N/A,,Clear,190,2013-01-19 01:53:00
9:53 PM,30.9,21.9,69,30.22,10.0,SSW,23.0,32.2,N/A,,Clear,200,2013-01-19 02:53:00
10:53 PM,32.0,21.9,66,30.19,10.0,SSW,21.9,31.1,N/A,,Clear,200,2013-01-19 03:53:00
11:53 PM,33.1,23.0,66,30.16,10.0,SSW,24.2,33.4,N/A,,Clear,200,2013-01-19 04:53:00